Weather in Hrensko

Czech Republic     50°52′25″N   14°14′14″E
temp.,
°C
wind,
m/s
gust,
m/s
humid.,
%
clouds,
%
prec.,
mm/h
press.,
hPa
HPBL,
m
6 may, thu
thu623:00+4w5117273 0.0 1009952
02:00+3wsw2778100 0.0 1010347
05:000ssw22955 0.0 101129
08:00+5ssw377298 0.0 1011638
11:00+7wsw5761100 0.1 10101314
14:00+11wsw5941100 0.8 10082473
17:00+10sw4657100 0.4 10061487
20:00+7ssw1176100 0.7 100620
7 may, fri
fri723:00+6ssw4896100 2.1 10051064
02:00+5s2797100 3.8 1003778
05:00+5wsw2797100 1.7 1003944
08:00+4w41097100 2.1 10061086
11:00+3w6129695 0.4 10091021
14:00+8wnw8115683 0.8 10101974
17:00+7wnw7136881 0.9 10121695
20:00+3nw4118776 1.4 1016923
8 may, sat
sat823:000sw22952 0.0 101921
02:000wsw22935 0.0 101917
05:00−1sw21935 0.0 102017
08:00+5wsw14715 0.0 1020397
11:00+10wnw464751 0.3 10201803
14:00+12w354498 0.8 10192014
17:00+12wsw124696 0.1 10181543
20:00+8ese2267100 0.1 101814
9 may, sun
sun923:00+5se2278100 0.0 101825
02:00+3se238445 0.0 101845
05:00+5sse257748 0.0 1017142
08:00+8sse35666 0.0 1016269
11:00+14sse58525 0.0 1015648
14:00+19sse584823 0.0 10131045
17:00+19se685324 0.0 10121067
20:00+13se51271100 0.0 1012561
10 may, mon
mon1023:00+10sse4117983 0.0 1013383
02:00+8sse3108594 0.0 1013322
05:00+7sse378516 0.0 1012190
08:00+11sse486999 0.0 1012476
11:00+16sse45600 0.0 1011635
14:00+20sse56540 0.0 1010931
17:00+21se46561 0.0 10091122
20:00+16se411765 0.0 1008484